TimePDT,TemperatureF,Dew PointF,Humidity,Sea Level PressureIn,VisibilityMPH,Wind Direction,Wind SpeedMPH,Gust SpeedMPH,PrecipitationIn,Events,Conditions,WindDirDegrees,DateUTC
12:53 AM,35.1,30.9,85,30.18,10.0,Calm,Calm,-,N/A,,Clear,0,2013-10-13 07:53:00
1:53 AM,35.1,30.9,85,30.20,-9999.0,Calm,Calm,-,N/A,,Clear,0,2013-10-13 08:53:00
2:53 AM,34.0,30.0,85,30.21,10.0,Calm,Calm,-,N/A,,Clear,0,2013-10-13 09:53:00
3:53 AM,32.0,28.9,88,30.22,10.0,Calm,Calm,-,N/A,,Clear,0,2013-10-13 10:53:00
4:53 AM,32.0,28.0,85,30.23,10.0,Calm,Calm,-,N/A,,Clear,0,2013-10-13 11:53:00
5:53 AM,30.9,28.0,89,30.25,10.0,NNE,3.5,-,N/A,,Clear,20,2013-10-13 12:53:00
6:53 AM,30.9,28.0,89,30.26,10.0,Calm,Calm,-,N/A,,Clear,0,2013-10-13 13:53:00
7:53 AM,30.9,28.0,89,30.29,10.0,Calm,Calm,-,N/A,,Clear,0,2013-10-13 14:53:00
8:53 AM,39.9,35.1,83,30.29,10.0,Calm,Calm,-,N/A,,Clear,0,2013-10-13 15:53:00
9:53 AM,45.0,37.0,74,30.30,10.0,Calm,Calm,-,N/A,,Clear,0,2013-10-13 16:53:00
10:53 AM,51.1,37.9,61,30.29,-9999.0,Calm,Calm,-,N/A,,Clear,0,2013-10-13 17:53:00
11:53 AM,55.0,39.0,55,30.27,10.0,East,4.6,-,N/A,,Clear,90,2013-10-13 18:53:00
12:53 PM,59.0,37.9,46,30.25,10.0,Variable,3.5,-,N/A,,Clear,0,2013-10-13 19:53:00
1:53 PM,60.1,35.1,39,30.23,10.0,Calm,Calm,-,N/A,,Clear,0,2013-10-13 20:53:00
2:53 PM,62.1,33.1,34,30.22,10.0,Calm,Calm,-,N/A,,Clear,0,2013-10-13 21:53:00
3:53 PM,63.0,33.1,33,30.22,10.0,Calm,Calm,-,N/A,,Partly Cloudy,0,2013-10-13 22:53:00
4:53 PM,62.1,34.0,35,30.22,10.0,West,3.5,-,N/A,,Clear,270,2013-10-13 23:53:00
5:53 PM,55.9,37.9,51,30.24,10.0,NW,8.1,-,N/A,,Clear,310,2013-10-14 00:53:00
6:53 PM,53.1,36.0,52,30.26,10.0,North,9.2,-,N/A,,Clear,350,2013-10-14 01:53:00
7:53 PM,50.0,37.0,61,30.29,10.0,NNW,10.4,-,N/A,,Clear,330,2013-10-14 02:53:00
8:53 PM,46.9,37.0,68,30.30,10.0,NW,8.1,-,N/A,,Clear,320,2013-10-14 03:53:00
9:53 PM,45.0,36.0,71,30.32,10.0,NW,3.5,-,N/A,,Mostly Cloudy,310,2013-10-14 04:53:00
10:53 PM,41.0,34.0,76,30.33,10.0,Calm,Calm,-,N/A,,Clear,0,2013-10-14 05:53:00
11:53 PM,39.0,33.1,79,30.34,10.0,Calm,Calm,-,N/A,,Clear,0,2013-10-14 06:53:00